QTR24W KLAX-OTHH

Flight info

Callsign QTR24W
Flight time N/A
Altitude 34000
Route GMN7 EHF J5 FMG/N0494F330 J7 REO/N0487F340 J537 MLP/N0492F330 J540 YQL Q896 MEETO Q959 YVC J540 YZS DCT 65N079W 67N067W/M085F330 69N053W 69N037W 67N023W/M085F350 65N011W 63N005W DCT ERSER/N0492F350 DCT EPOTU DCT PEVEB DCT LAGUM L621 AAL M725 OLPIB/N0489F370 M602 BINKA DCT VABAT L619 ADVAB L623 LENOV DCT RILAS DCT EMPOS DCT APROB DCT ADORU UG80 EKI UW81 YAYLA UL854 KULAR UT39 TOMBI DCT APLON L550 PASOS/N0486F390 G183 TBA DCT GETAN DCT KITOT N697 HIL G662 GAS J874 MUSRI L604 UMENA G663 TABTA L681 ORLEK
Aircraft A35K/H-SDE2E3GHIJ3J4J5LM1ORWXY/LB1D1

Departure

Time 2026-05-06 16:07
Airport Los Angeles International Airport (KLAX)

Arrival

Time N/A
Airport Hamad International Airport (OTHH)
Time Latitude Longitude Altitude Speed Heading
2026-05-06 15:38 33.94099 -118.41088 101 ft 0 kts 83°
2026-05-06 15:55 33.94097 -118.41102 102 ft 4 kts 81°
2026-05-06 15:55 33.94094 -118.41133 100 ft 4 kts 82°
2026-05-06 15:55 33.94090 -118.41166 99 ft 4 kts 83°
2026-05-06 15:55 33.94089 -118.41186 99 ft 2 kts 108°
2026-05-06 15:56 33.94096 -118.41196 100 ft 2 kts 177°
2026-05-06 15:56 33.94102 -118.41196 100 ft 0 kts 172°
2026-05-06 15:57 33.94101 -118.41196 100 ft 0 kts 172°
2026-05-06 15:58 33.94100 -118.41196 100 ft 0 kts 172°
2026-05-06 15:58 33.94098 -118.41195 100 ft 0 kts 171°
2026-05-06 15:58 33.94095 -118.41195 99 ft 0 kts 171°
2026-05-06 15:58 33.94092 -118.41194 99 ft 1 kts 171°
2026-05-06 15:59 33.94085 -118.41193 98 ft 2 kts 171°
2026-05-06 15:59 33.94066 -118.41190 100 ft 4 kts 172°
2026-05-06 15:59 33.94027 -118.41184 101 ft 7 kts 173°
2026-05-06 15:59 33.93974 -118.41176 102 ft 8 kts 173°
2026-05-06 16:00 33.93922 -118.41169 102 ft 7 kts 173°
2026-05-06 16:00 33.93877 -118.41163 103 ft 6 kts 173°
2026-05-06 16:00 33.93843 -118.41158 105 ft 4 kts 173°
2026-05-06 16:00 33.93813 -118.41154 104 ft 5 kts 173°
2026-05-06 16:01 33.93779 -118.41135 106 ft 5 kts 135°
2026-05-06 16:01 33.93769 -118.41084 107 ft 8 kts 93°
2026-05-06 16:01 33.93776 -118.40994 107 ft 13 kts 83°
2026-05-06 16:01 33.93788 -118.40875 108 ft 14 kts 83°
2026-05-06 16:02 33.93799 -118.40760 108 ft 13 kts 83°
2026-05-06 16:02 33.93811 -118.40651 108 ft 13 kts 83°
2026-05-06 16:02 33.93822 -118.40546 108 ft 12 kts 83°
2026-05-06 16:02 33.93831 -118.40447 109 ft 11 kts 83°
2026-05-06 16:03 33.93841 -118.40354 109 ft 11 kts 83°
2026-05-06 16:03 33.93850 -118.40254 110 ft 13 kts 83°
2026-05-06 16:03 33.93864 -118.40141 110 ft 14 kts 82°
2026-05-06 16:03 33.93877 -118.40016 110 ft 16 kts 83°
2026-05-06 16:04 33.93890 -118.39878 110 ft 17 kts 83°
2026-05-06 16:04 33.93905 -118.39726 109 ft 19 kts 83°
2026-05-06 16:04 33.93922 -118.39563 109 ft 20 kts 82°
2026-05-06 16:04 33.93941 -118.39388 107 ft 22 kts 83°
2026-05-06 16:05 33.93960 -118.39204 107 ft 23 kts 83°
2026-05-06 16:05 33.93979 -118.39015 107 ft 23 kts 83°
2026-05-06 16:05 33.93998 -118.38822 107 ft 23 kts 83°
2026-05-06 16:05 33.94017 -118.38635 108 ft 22 kts 83°
2026-05-06 16:06 33.94037 -118.38459 109 ft 20 kts 82°
2026-05-06 16:06 33.94024 -118.38344 111 ft 11 kts 134°
2026-05-06 16:06 33.93976 -118.38335 113 ft 5 kts 207°
2026-05-06 16:06 33.93948 -118.38403 113 ft 14 kts 258°
2026-05-06 16:07 33.93920 -118.38652 114 ft 59 kts 263°
2026-05-06 16:07 33.93842 -118.39413 113 ft 123 kts 263°
2026-05-06 16:07 33.93712 -118.40661 112 ft 177 kts 263°
2026-05-06 16:07 33.93543 -118.42218 734 ft 178 kts 262°
2026-05-06 16:08 33.93286 -118.43646 1518 ft 177 kts 252°
2026-05-06 16:08 33.92989 -118.45129 2108 ft 185 kts 259°
2026-05-06 16:08 33.92822 -118.46708 2527 ft 204 kts 270°
2026-05-06 16:08 33.93155 -118.48410 2767 ft 220 kts 301°
2026-05-06 16:09 33.94324 -118.49601 3037 ft 223 kts 338°
2026-05-06 16:09 33.95810 -118.50210 3376 ft 229 kts 342°
2026-05-06 16:09 33.97358 -118.50802 3582 ft 241 kts 342°
2026-05-06 16:09 33.98998 -118.51458 3859 ft 250 kts 341°
2026-05-06 16:10 34.00653 -118.52139 4253 ft 254 kts 341°
2026-05-06 16:10 34.02334 -118.52838 4683 ft 257 kts 341°
2026-05-06 16:10 34.03657 -118.53392 5046 ft 258 kts 341°
2026-05-06 16:11 34.03945 -118.53514 5137 ft 259 kts 341°
2026-05-06 16:11 34.05657 -118.54234 5653 ft 262 kts 341°
2026-05-06 16:11 34.07383 -118.54964 6134 ft 266 kts 341°
2026-05-06 16:11 34.09113 -118.55696 6661 ft 268 kts 341°
2026-05-06 16:12 34.10887 -118.56446 7171 ft 270 kts 341°
2026-05-06 16:12 34.12665 -118.57200 7701 ft 272 kts 341°
2026-05-06 16:12 34.14453 -118.57957 8237 ft 273 kts 342°
2026-05-06 16:12 34.16249 -118.58718 8784 ft 274 kts 342°
2026-05-06 16:13 34.18056 -118.59482 9314 ft 275 kts 343°
2026-05-06 16:13 34.19871 -118.60252 9849 ft 277 kts 343°
2026-05-06 16:13 34.21694 -118.61025 10309 ft 280 kts 343°
2026-05-06 16:13 34.23564 -118.61816 10540 ft 291 kts 343°
2026-05-06 16:14 34.25514 -118.62642 10773 ft 303 kts 343°
2026-05-06 16:14 34.27547 -118.63504 11007 ft 314 kts 343°
2026-05-06 16:14 34.29645 -118.64395 11278 ft 325 kts 343°
2026-05-06 16:14 34.31814 -118.65321 11544 ft 335 kts 343°
2026-05-06 16:15 34.34050 -118.66272 11806 ft 346 kts 343°
2026-05-06 16:15 34.36349 -118.67251 12062 ft 355 kts 343°
2026-05-06 16:15 34.38716 -118.68259 12320 ft 365 kts 343°
2026-05-06 16:15 34.41105 -118.69279 12568 ft 374 kts 342°
2026-05-06 16:16 34.43564 -118.70329 12926 ft 379 kts 342°
2026-05-06 16:16 34.46082 -118.71403 13329 ft 383 kts 342°
2026-05-06 16:16 34.48608 -118.72483 13734 ft 386 kts 343°
2026-05-06 16:16 34.51164 -118.73577 14124 ft 389 kts 343°
2026-05-06 16:17 34.53720 -118.74670 14544 ft 391 kts 343°
2026-05-06 16:17 34.56287 -118.75770 14928 ft 393 kts 342°
2026-05-06 16:17 34.58874 -118.76878 15334 ft 395 kts 342°
2026-05-06 16:17 34.61471 -118.77992 15749 ft 397 kts 342°
2026-05-06 16:18 34.64080 -118.79111 16177 ft 398 kts 342°
2026-05-06 16:18 34.66700 -118.80235 16607 ft 401 kts 342°
2026-05-06 16:18 34.68439 -118.80983 16901 ft 402 kts 342°
2026-05-06 16:18 34.71948 -118.82490 17472 ft 404 kts 342°
2026-05-06 16:19 34.74600 -118.83631 17890 ft 406 kts 342°
2026-05-06 16:19 34.76406 -118.84408 18185 ft 407 kts 342°
2026-05-06 16:19 34.79056 -118.85549 18567 ft 409 kts 342°
2026-05-06 16:19 34.81785 -118.86715 18882 ft 412 kts 343°
2026-05-06 16:20 34.84539 -118.87685 19258 ft 412 kts 347°
2026-05-06 16:20 34.87288 -118.88577 19615 ft 415 kts 347°
2026-05-06 16:20 34.90114 -118.89514 19962 ft 417 kts 346°
2026-05-06 16:20 34.92920 -118.90463 20345 ft 419 kts 346°
2026-05-06 16:21 34.95709 -118.91414 20733 ft 421 kts 346°
2026-05-06 16:21 34.98537 -118.92385 21124 ft 423 kts 346°
2026-05-06 16:21 35.01413 -118.93375 21517 ft 425 kts 346°
2026-05-06 16:21 35.04233 -118.94348 21908 ft 427 kts 346°
2026-05-06 16:22 35.07097 -118.95338 22307 ft 429 kts 346°
2026-05-06 16:22 35.09969 -118.96332 22720 ft 431 kts 346°
2026-05-06 16:22 35.12868 -118.97336 23113 ft 433 kts 346°
2026-05-06 16:22 35.15780 -118.98345 23508 ft 435 kts 346°
2026-05-06 16:23 35.18699 -118.99357 23868 ft 437 kts 346°
2026-05-06 16:23 35.21632 -119.00376 24202 ft 439 kts 347°
2026-05-06 16:23 35.24575 -119.01398 24501 ft 441 kts 347°
2026-05-06 16:23 35.27499 -119.02414 24804 ft 443 kts 347°
2026-05-06 16:24 35.30506 -119.03461 25116 ft 445 kts 347°
2026-05-06 16:24 35.33460 -119.04490 25434 ft 447 kts 347°
2026-05-06 16:24 35.36454 -119.05534 25740 ft 449 kts 347°
2026-05-06 16:24 35.39464 -119.06583 26037 ft 450 kts 347°
2026-05-06 16:25 35.42492 -119.07640 26329 ft 452 kts 347°
2026-05-06 16:25 35.45540 -119.08705 26625 ft 454 kts 347°
2026-05-06 16:25 35.48601 -119.09642 26917 ft 454 kts 353°
2026-05-06 16:25 35.51728 -119.10217 27200 ft 454 kts 355°
2026-05-06 16:26 35.54869 -119.10667 27476 ft 455 kts 356°
2026-05-06 16:26 35.58028 -119.11067 27785 ft 456 kts 357°
2026-05-06 16:26 35.61154 -119.11447 28060 ft 458 kts 357°
2026-05-06 16:26 35.64334 -119.11837 28335 ft 459 kts 357°
2026-05-06 16:27 35.67514 -119.12236 28604 ft 461 kts 357°
2026-05-06 16:27 35.70694 -119.12644 28881 ft 462 kts 357°
2026-05-06 16:27 35.73900 -119.13062 29201 ft 462 kts 357°
2026-05-06 16:27 35.77090 -119.13483 29593 ft 460 kts 357°
2026-05-06 16:28 35.80279 -119.13905 29958 ft 459 kts 358°
2026-05-06 16:28 35.83449 -119.14326 30320 ft 457 kts 358°
2026-05-06 16:28 35.86612 -119.14745 30584 ft 457 kts 358°
2026-05-06 16:28 35.89774 -119.15163 30809 ft 457 kts 358°
2026-05-06 16:29 35.92893 -119.15575 31029 ft 457 kts 358°
2026-05-06 16:29 35.96054 -119.15994 31278 ft 456 kts 358°
2026-05-06 16:29 35.99208 -119.16412 31497 ft 456 kts 358°
2026-05-06 16:29 36.02368 -119.16831 31708 ft 456 kts 358°
2026-05-06 16:30 36.05505 -119.17247 31908 ft 455 kts 358°
2026-05-06 16:30 36.07599 -119.17525 32063 ft 455 kts 358°
2026-05-06 16:30 36.11824 -119.18086 32193 ft 456 kts 358°
2026-05-06 16:30 36.14982 -119.18506 32203 ft 456 kts 358°
2026-05-06 16:31 36.21279 -119.19345 32197 ft 455 kts 358°
2026-05-06 16:31 36.27573 -119.20185 32195 ft 455 kts 358°
2026-05-06 16:32 36.33884 -119.21027 32201 ft 455 kts 358°
2026-05-06 16:32 36.40175 -119.21869 32198 ft 455 kts 358°
2026-05-06 16:33 36.46467 -119.22712 32194 ft 455 kts 358°
2026-05-06 16:34 36.55913 -119.23981 32184 ft 455 kts 358°
2026-05-06 16:34 36.62163 -119.24823 32170 ft 454 kts 358°
2026-05-06 16:35 36.68449 -119.25671 32167 ft 454 kts 358°
2026-05-06 16:35 36.74737 -119.26520 32164 ft 454 kts 358°
2026-05-06 16:36 36.81006 -119.27370 32159 ft 454 kts 358°
2026-05-06 16:36 36.87274 -119.28227 32157 ft 453 kts 359°
2026-05-06 16:37 36.93543 -119.29072 32144 ft 452 kts 359°
2026-05-06 16:37 36.99790 -119.29918 32152 ft 451 kts 359°
2026-05-06 16:38 37.06026 -119.30767 32141 ft 450 kts 359°
2026-05-06 16:38 37.09105 -119.31183 31737 ft 450 kts 356°
2026-05-06 16:38 37.12201 -119.31599 31972 ft 449 kts 356°
2026-05-06 16:38 37.15325 -119.32026 32138 ft 450 kts 356°
2026-05-06 16:39 37.18450 -119.32455 32141 ft 455 kts 356°
2026-05-06 16:39 37.24800 -119.33325 32134 ft 460 kts 356°
2026-05-06 16:40 37.31153 -119.34201 32149 ft 458 kts 356°
2026-05-06 16:40 37.37515 -119.35077 32143 ft 458 kts 356°
2026-05-06 16:41 37.43807 -119.35943 32147 ft 458 kts 356°
2026-05-06 16:41 37.50139 -119.36813 32147 ft 458 kts 356°
2026-05-06 16:42 37.56478 -119.37689 32154 ft 458 kts 356°
2026-05-06 16:42 37.62802 -119.38564 32155 ft 458 kts 356°
2026-05-06 16:43 37.69148 -119.39443 32163 ft 458 kts 356°
2026-05-06 16:43 37.75491 -119.40323 32165 ft 458 kts 356°
2026-05-06 16:44 37.81827 -119.41203 32178 ft 458 kts 356°
2026-05-06 16:44 37.88165 -119.42085 32181 ft 458 kts 356°
2026-05-06 16:45 37.94502 -119.42971 32187 ft 458 kts 355°
2026-05-06 16:45 38.00834 -119.43863 32192 ft 458 kts 356°
2026-05-06 16:46 38.07179 -119.44745 32206 ft 458 kts 355°
2026-05-06 16:46 38.13477 -119.45624 32197 ft 459 kts 355°
2026-05-06 16:47 38.19821 -119.46514 32204 ft 458 kts 355°
2026-05-06 16:47 38.26184 -119.47411 32211 ft 459 kts 355°
2026-05-06 16:48 38.32550 -119.48308 32209 ft 460 kts 355°
2026-05-06 16:48 38.38917 -119.49216 32203 ft 460 kts 355°
2026-05-06 16:49 38.45282 -119.50111 32203 ft 460 kts 355°
2026-05-06 16:49 38.51652 -119.51009 32209 ft 461 kts 355°
2026-05-06 16:50 38.57980 -119.51905 32194 ft 461 kts 355°
2026-05-06 16:50 38.64362 -119.52813 32183 ft 461 kts 355°
2026-05-06 16:51 38.70740 -119.53731 32191 ft 461 kts 355°
2026-05-06 16:51 38.77140 -119.54639 32187 ft 462 kts 355°
2026-05-06 16:52 38.83516 -119.55546 32207 ft 462 kts 355°
2026-05-06 16:52 38.89907 -119.56459 32212 ft 462 kts 355°
2026-05-06 16:53 38.96261 -119.57370 32224 ft 462 kts 355°
2026-05-06 16:53 39.02647 -119.58288 32226 ft 462 kts 355°
2026-05-06 16:54 39.09080 -119.59215 32217 ft 462 kts 355°
2026-05-06 16:54 39.15471 -119.60137 32241 ft 462 kts 355°
2026-05-06 16:55 39.21849 -119.61059 32245 ft 462 kts 354°
2026-05-06 16:55 39.28205 -119.61980 32233 ft 462 kts 354°
2026-05-06 16:56 39.34378 -119.62877 32208 ft 462 kts 354°
2026-05-06 16:56 39.40765 -119.63804 32198 ft 462 kts 354°
2026-05-06 16:57 39.47174 -119.64733 32215 ft 462 kts 355°
2026-05-06 16:57 39.53586 -119.64519 32215 ft 461 kts 10°
2026-05-06 16:58 39.59692 -119.62010 32193 ft 462 kts 21°
2026-05-06 16:58 39.65616 -119.58744 32165 ft 463 kts 22°
2026-05-06 16:59 39.71520 -119.55396 32168 ft 463 kts 22°
2026-05-06 16:59 39.77436 -119.52058 32146 ft 463 kts 22°
2026-05-06 17:00 39.83359 -119.48734 32112 ft 463 kts 22°
2026-05-06 17:00 39.89240 -119.45435 32093 ft 463 kts 22°
2026-05-06 17:01 39.94282 -119.42601 32093 ft 463 kts 22°
2026-05-06 17:01 40.00165 -119.39288 32093 ft 463 kts 22°
2026-05-06 17:02 40.06083 -119.35949 32109 ft 463 kts 22°
2026-05-06 17:02 40.11993 -119.32605 32114 ft 463 kts 22°
2026-05-06 17:03 40.16929 -119.29807 32104 ft 463 kts 22°
2026-05-06 17:03 40.22855 -119.26443 32111 ft 463 kts 22°
2026-05-06 17:04 40.28763 -119.23083 32116 ft 463 kts 22°
2026-05-06 17:04 40.34696 -119.19704 32120 ft 463 kts 22°
2026-05-06 17:05 40.40610 -119.16329 32122 ft 463 kts 22°
2026-05-06 17:05 40.46513 -119.12954 32121 ft 463 kts 22°
2026-05-06 17:06 40.52383 -119.09590 32119 ft 463 kts 22°
2026-05-06 17:06 40.58288 -119.06202 32125 ft 463 kts 21°
2026-05-06 17:07 40.64179 -119.02818 32119 ft 463 kts 22°
2026-05-06 17:07 40.70101 -118.99399 32117 ft 463 kts 22°
2026-05-06 17:08 40.75982 -118.96000 32115 ft 463 kts 22°
2026-05-06 17:08 40.81867 -118.92594 32114 ft 463 kts 22°
2026-05-06 17:09 40.87760 -118.89177 32114 ft 463 kts 22°
2026-05-06 17:09 40.93642 -118.85760 32107 ft 463 kts 22°
2026-05-06 17:10 40.99539 -118.82327 32107 ft 463 kts 22°
2026-05-06 17:10 41.05444 -118.78884 32105 ft 462 kts 22°
2026-05-06 17:11 41.11338 -118.75440 32106 ft 462 kts 22°
2026-05-06 17:11 41.17189 -118.72015 32104 ft 462 kts 22°
2026-05-06 17:12 41.23075 -118.68561 32112 ft 462 kts 22°
2026-05-06 17:12 41.28958 -118.65103 32116 ft 462 kts 22°
2026-05-06 17:13 41.34838 -118.61641 32113 ft 462 kts 22°
2026-05-06 17:13 41.40714 -118.58173 32116 ft 462 kts 22°
2026-05-06 17:14 41.46553 -118.54720 32117 ft 462 kts 22°
2026-05-06 17:14 41.52429 -118.51238 32116 ft 462 kts 22°
2026-05-06 17:15 41.58302 -118.47752 32115 ft 462 kts 22°
2026-05-06 17:15 41.64171 -118.44261 32117 ft 462 kts 22°
2026-05-06 17:16 41.70034 -118.40766 32115 ft 462 kts 22°
2026-05-06 17:16 41.75916 -118.37253 32118 ft 462 kts 22°
2026-05-06 17:17 41.81786 -118.33742 32122 ft 462 kts 22°
2026-05-06 17:17 41.87656 -118.30222 32123 ft 462 kts 22°
2026-05-06 17:18 41.93489 -118.26717 32121 ft 462 kts 22°
2026-05-06 17:18 41.99337 -118.23195 32121 ft 461 kts 22°
2026-05-06 17:19 42.05211 -118.19651 32120 ft 462 kts 22°
2026-05-06 17:19 42.11074 -118.16107 32117 ft 462 kts 22°
2026-05-06 17:20 42.16943 -118.12551 32116 ft 462 kts 22°
2026-05-06 17:20 42.22806 -118.08991 32113 ft 462 kts 22°
2026-05-06 17:21 42.28618 -118.05456 32123 ft 462 kts 22°
2026-05-06 17:21 42.34501 -118.01870 32136 ft 462 kts 22°
2026-05-06 17:22 42.40361 -117.98292 32154 ft 462 kts 22°
2026-05-06 17:22 42.46225 -117.94704 32173 ft 462 kts 22°
2026-05-06 17:23 42.52089 -117.91108 32184 ft 462 kts 22°
2026-05-06 17:23 42.57962 -117.87527 32183 ft 462 kts 20°
2026-05-06 17:24 42.64032 -117.84733 32184 ft 460 kts 15°
2026-05-06 17:24 42.70105 -117.82170 32171 ft 460 kts 15°
2026-05-06 17:25 42.76227 -117.79614 32149 ft 460 kts 15°
2026-05-06 17:25 42.82353 -117.77045 32128 ft 460 kts 15°
2026-05-06 17:26 42.88481 -117.74462 32105 ft 460 kts 15°
2026-05-06 17:26 42.94604 -117.71873 32099 ft 460 kts 15°
2026-05-06 17:27 43.00689 -117.69295 32098 ft 460 kts 15°
2026-05-06 17:27 43.06807 -117.66696 32104 ft 461 kts 15°
2026-05-06 17:28 43.12932 -117.64091 32098 ft 461 kts 15°
2026-05-06 17:28 43.19049 -117.61484 32103 ft 461 kts 15°
2026-05-06 17:29 43.25175 -117.58869 32099 ft 461 kts 15°
2026-05-06 17:29 43.31306 -117.56246 32105 ft 461 kts 15°
2026-05-06 17:30 43.37424 -117.53621 32105 ft 461 kts 15°
2026-05-06 17:30 43.43520 -117.51000 32109 ft 461 kts 15°
2026-05-06 17:31 43.49643 -117.48362 32112 ft 461 kts 14°
2026-05-06 17:31 43.55763 -117.45722 32113 ft 461 kts 14°
2026-05-06 17:32 43.61878 -117.43076 32123 ft 461 kts 14°
2026-05-06 17:32 43.68027 -117.40411 32127 ft 461 kts 14°
2026-05-06 17:33 43.74120 -117.37763 32134 ft 461 kts 14°
2026-05-06 17:33 43.80280 -117.35081 32145 ft 461 kts 14°
2026-05-06 17:34 43.86369 -117.32423 32155 ft 461 kts 14°
2026-05-06 17:34 43.92489 -117.29747 32166 ft 462 kts 14°
2026-05-06 17:35 43.98623 -117.27060 32176 ft 462 kts 14°
2026-05-06 17:35 44.04766 -117.24362 32179 ft 462 kts 14°
2026-05-06 17:36 44.13895 -117.20341 32179 ft 462 kts 14°
2026-05-06 17:36 44.20051 -117.17624 32176 ft 462 kts 14°
2026-05-06 17:37 44.26177 -117.14914 32175 ft 462 kts 14°
2026-05-06 17:37 44.32290 -117.12204 32175 ft 461 kts 14°
2026-05-06 17:38 44.38425 -117.09477 32161 ft 461 kts 14°
2026-05-06 17:38 44.44541 -117.06753 32163 ft 461 kts 14°
2026-05-06 17:39 44.50640 -117.04032 32157 ft 462 kts 14°
2026-05-06 17:39 44.56756 -117.01292 32154 ft 462 kts 14°
2026-05-06 17:40 44.62889 -116.98540 32150 ft 462 kts 14°
2026-05-06 17:40 44.69025 -116.95782 32150 ft 462 kts 14°
2026-05-06 17:41 44.75106 -116.93047 32142 ft 462 kts 14°
2026-05-06 17:41 44.81219 -116.90285 32134 ft 462 kts 14°
2026-05-06 17:42 44.87350 -116.87509 32133 ft 462 kts 14°
2026-05-06 17:42 44.93468 -116.84738 32119 ft 462 kts 14°
2026-05-06 17:43 44.99588 -116.81958 32111 ft 462 kts 14°
2026-05-06 17:43 45.05718 -116.79165 32108 ft 463 kts 14°
2026-05-06 17:44 45.11857 -116.76360 32087 ft 463 kts 14°
2026-05-06 17:44 45.17963 -116.73572 32097 ft 464 kts 14°
2026-05-06 17:45 45.24109 -116.70759 32077 ft 464 kts 14°
2026-05-06 17:45 45.30243 -116.67948 32055 ft 463 kts 14°
2026-05-06 17:46 45.36378 -116.65124 32061 ft 463 kts 14°
2026-05-06 17:46 45.42501 -116.62278 32055 ft 462 kts 14°
2026-05-06 17:47 45.48628 -116.59439 32036 ft 463 kts 14°
2026-05-06 17:47 45.54747 -116.56607 32029 ft 462 kts 14°
2026-05-06 17:48 45.60850 -116.53770 32017 ft 462 kts 14°
2026-05-06 17:48 45.65955 -116.51395 32025 ft 463 kts 14°
2026-05-06 17:49 45.72063 -116.48543 32027 ft 462 kts 14°
2026-05-06 17:49 45.78181 -116.45677 32038 ft 462 kts 14°
2026-05-06 17:50 45.83119 -116.43361 32053 ft 462 kts 14°
2026-05-06 17:50 45.89232 -116.40490 32051 ft 462 kts 14°
2026-05-06 17:51 45.95317 -116.37623 32049 ft 462 kts 14°
2026-05-06 17:51 46.01445 -116.34735 32057 ft 462 kts 14°
2026-05-06 17:52 46.07557 -116.31842 32061 ft 462 kts 14°
2026-05-06 17:52 46.13670 -116.28939 32060 ft 463 kts 14°
2026-05-06 17:53 46.19795 -116.26027 32060 ft 463 kts 14°
2026-05-06 17:53 46.25876 -116.23130 32057 ft 463 kts 14°
2026-05-06 17:54 46.31997 -116.20207 32050 ft 463 kts 14°
2026-05-06 17:54 46.38125 -116.17274 32053 ft 463 kts 14°
2026-05-06 17:55 46.44183 -116.14365 32044 ft 463 kts 14°
2026-05-06 17:55 46.50335 -116.11405 32042 ft 463 kts 14°
2026-05-06 17:56 46.56446 -116.08459 32037 ft 463 kts 14°
2026-05-06 17:56 46.62568 -116.05502 32032 ft 464 kts 14°
2026-05-06 17:57 46.68695 -116.02537 32028 ft 464 kts 14°
2026-05-06 17:57 46.74816 -115.99565 32019 ft 464 kts 14°
2026-05-06 17:58 46.80947 -115.96582 32012 ft 464 kts 14°
2026-05-06 17:58 46.87070 -115.93595 32002 ft 464 kts 13°
2026-05-06 17:59 46.93201 -115.90594 31999 ft 464 kts 14°
2026-05-06 17:59 46.99327 -115.87585 31994 ft 464 kts 14°
2026-05-06 18:00 47.05455 -115.84571 31984 ft 464 kts 13°
2026-05-06 18:00 47.11581 -115.81553 31976 ft 464 kts 13°
2026-05-06 18:01 47.17709 -115.78527 31972 ft 465 kts 13°
2026-05-06 18:01 47.23847 -115.75489 31958 ft 465 kts 13°
2026-05-06 18:02 47.29976 -115.72445 31956 ft 465 kts 13°
2026-05-06 18:02 47.36063 -115.69416 31949 ft 465 kts 13°
2026-05-06 18:03 47.42189 -115.66313 31936 ft 466 kts 16°
2026-05-06 18:03 47.47918 -115.61590 31944 ft 478 kts 32°
2026-05-06 18:04 47.53052 -115.55255 31948 ft 482 kts 35°
2026-05-06 18:04 47.58067 -115.48714 31949 ft 483 kts 36°
2026-05-06 18:05 47.63104 -115.42114 31959 ft 482 kts 36°
2026-05-06 18:05 47.68141 -115.35536 31954 ft 482 kts 35°
2026-05-06 18:06 47.73173 -115.28964 31961 ft 481 kts 35°
2026-05-06 18:06 47.78207 -115.22387 31982 ft 482 kts 35°
2026-05-06 18:07 47.83235 -115.15792 31983 ft 482 kts 35°
2026-05-06 18:07 47.88255 -115.09185 31989 ft 481 kts 35°
2026-05-06 18:08 47.93231 -115.02619 32002 ft 481 kts 35°
2026-05-06 18:08 47.98247 -114.95987 32006 ft 481 kts 35°
2026-05-06 18:09 48.03244 -114.89359 32015 ft 480 kts 36°
2026-05-06 18:09 48.08238 -114.82716 32010 ft 480 kts 36°
2026-05-06 18:10 48.11749 -114.78038 32015 ft 480 kts 36°
2026-05-06 18:10 48.15432 -114.73120 32040 ft 480 kts 36°
2026-05-06 18:11 48.20407 -114.66459 32047 ft 480 kts 36°
2026-05-06 18:11 48.25418 -114.59732 32057 ft 480 kts 36°
2026-05-06 18:12 48.30359 -114.53084 32059 ft 480 kts 36°
2026-05-06 18:12 48.35321 -114.46388 32063 ft 479 kts 36°
2026-05-06 18:13 48.40277 -114.39680 32070 ft 479 kts 36°
2026-05-06 18:13 48.45231 -114.32959 32072 ft 479 kts 36°
2026-05-06 18:14 48.50146 -114.26268 32076 ft 478 kts 36°
2026-05-06 18:14 48.55105 -114.19500 32078 ft 478 kts 36°
2026-05-06 18:15 48.60035 -114.12755 32076 ft 478 kts 36°
2026-05-06 18:15 48.64939 -114.06023 32078 ft 478 kts 36°
2026-05-06 18:16 48.69858 -113.99258 32074 ft 478 kts 36°
2026-05-06 18:16 48.74783 -113.92470 32068 ft 478 kts 36°
2026-05-06 18:17 48.79687 -113.85683 32052 ft 477 kts 36°
2026-05-06 18:17 48.84589 -113.78882 32025 ft 478 kts 36°
2026-05-06 18:18 48.89489 -113.72065 31989 ft 477 kts 36°
2026-05-06 18:18 48.94370 -113.65250 31975 ft 477 kts 36°
2026-05-06 18:19 48.99261 -113.58413 31960 ft 477 kts 36°
2026-05-06 18:19 49.04111 -113.51626 31951 ft 476 kts 36°
2026-05-06 18:20 49.08986 -113.44761 31934 ft 476 kts 36°
2026-05-06 18:20 49.13847 -113.37894 31927 ft 476 kts 36°
2026-05-06 18:21 49.18709 -113.31014 31922 ft 475 kts 36°
2026-05-06 18:21 49.23554 -113.24139 31920 ft 475 kts 36°
2026-05-06 18:22 49.28396 -113.17248 31925 ft 475 kts 36°
2026-05-06 18:22 49.33230 -113.10352 31925 ft 475 kts 36°
2026-05-06 18:23 49.38032 -113.03483 31923 ft 474 kts 36°
2026-05-06 18:23 49.42851 -112.96568 31921 ft 474 kts 36°
2026-05-06 18:24 49.47662 -112.89645 31917 ft 474 kts 36°
2026-05-06 18:24 49.52475 -112.82701 31911 ft 474 kts 36°
2026-05-06 18:25 49.57286 -112.75740 31907 ft 474 kts 36°
2026-05-06 18:25 49.62091 -112.68776 31906 ft 473 kts 36°
2026-05-06 18:26 49.67224 -112.62579 31913 ft 466 kts 29°
2026-05-06 18:26 49.72432 -112.56744 31924 ft 466 kts 29°
2026-05-06 18:27 49.77705 -112.50877 31938 ft 466 kts 29°
2026-05-06 18:27 49.82962 -112.45001 31949 ft 466 kts 29°
2026-05-06 18:28 49.88223 -112.39089 31962 ft 466 kts 29°
2026-05-06 18:28 49.93435 -112.33214 31969 ft 465 kts 29°
2026-05-06 18:29 49.98668 -112.27301 31970 ft 465 kts 29°
2026-05-06 18:29 50.03911 -112.21360 31968 ft 465 kts 29°
2026-05-06 18:30 50.09103 -112.15460 31970 ft 465 kts 29°
2026-05-06 18:30 50.14326 -112.09508 31974 ft 465 kts 29°
2026-05-06 18:31 50.19542 -112.03549 31976 ft 464 kts 29°
2026-05-06 18:31 50.24731 -111.97603 31969 ft 464 kts 29°
2026-05-06 18:32 50.29928 -111.91633 31985 ft 464 kts 29°
2026-05-06 18:32 50.35133 -111.85637 31981 ft 464 kts 29°
2026-05-06 18:33 50.40329 -111.79636 31979 ft 464 kts 29°
2026-05-06 18:33 50.45526 -111.73614 31990 ft 464 kts 30°
2026-05-06 18:34 50.50681 -111.67626 31982 ft 463 kts 30°
2026-05-06 18:34 50.55021 -111.62571 31989 ft 463 kts 30°
2026-05-06 18:35 50.60168 -111.56561 31990 ft 463 kts 30°
2026-05-06 18:35 50.65336 -111.50508 31994 ft 463 kts 30°
2026-05-06 18:36 50.70505 -111.44438 31996 ft 463 kts 30°
2026-05-06 18:36 50.75656 -111.38373 31998 ft 463 kts 30°
2026-05-06 18:37 50.80827 -111.32267 31997 ft 462 kts 30°
2026-05-06 18:37 50.85987 -111.26157 32005 ft 463 kts 30°
2026-05-06 18:38 50.91135 -111.20042 32011 ft 462 kts 30°
2026-05-06 18:38 50.96285 -111.13909 32011 ft 463 kts 30°
2026-05-06 18:39 51.01417 -111.07780 32003 ft 463 kts 30°
2026-05-06 18:40 51.09113 -110.98556 32020 ft 463 kts 30°
2026-05-06 18:40 51.14223 -110.92409 32021 ft 463 kts 30°
2026-05-06 18:41 51.19360 -110.86211 32022 ft 462 kts 30°
2026-05-06 18:41 51.24490 -110.80004 32026 ft 462 kts 30°
2026-05-06 18:42 51.29617 -110.73785 32027 ft 462 kts 30°
2026-05-06 18:42 51.34728 -110.67565 32021 ft 462 kts 30°
2026-05-06 18:43 51.39812 -110.61362 32026 ft 462 kts 31°
2026-05-06 18:43 51.44922 -110.55108 32027 ft 461 kts 31°
2026-05-06 18:44 51.50013 -110.48859 32033 ft 461 kts 31°
2026-05-06 18:44 51.55098 -110.42602 32032 ft 461 kts 31°
2026-05-06 18:45 51.60187 -110.36320 32034 ft 460 kts 31°
2026-05-06 18:45 51.65265 -110.30033 32036 ft 460 kts 31°
2026-05-06 18:46 51.70326 -110.23750 32036 ft 459 kts 31°
2026-05-06 18:46 51.75389 -110.17445 32041 ft 459 kts 31°
2026-05-06 18:47 51.80444 -110.11132 32039 ft 458 kts 31°
2026-05-06 18:47 51.85488 -110.04814 32045 ft 458 kts 31°
2026-05-06 18:48 51.90479 -109.98533 32051 ft 458 kts 31°
2026-05-06 18:48 51.95267 -109.91669 32053 ft 462 kts 36°
2026-05-06 18:49 51.99945 -109.84477 32063 ft 462 kts 36°
2026-05-06 18:49 52.04630 -109.77380 32063 ft 460 kts 35°
2026-05-06 18:50 52.09349 -109.70334 32065 ft 459 kts 34°
2026-05-06 18:50 52.14062 -109.63314 32066 ft 458 kts 34°
2026-05-06 18:51 52.18755 -109.56302 32068 ft 458 kts 34°
2026-05-06 18:51 52.23409 -109.49317 32071 ft 457 kts 34°
2026-05-06 18:52 52.28087 -109.42275 32072 ft 457 kts 34°
2026-05-06 18:52 52.32737 -109.35258 32074 ft 456 kts 34°
2026-05-06 18:53 52.37413 -109.28175 32075 ft 456 kts 34°
2026-05-06 18:53 52.42050 -109.21129 32082 ft 455 kts 34°
2026-05-06 18:54 52.46694 -109.14052 32084 ft 455 kts 34°
2026-05-06 18:54 52.51330 -109.06969 32084 ft 455 kts 35°
2026-05-06 18:55 52.55955 -108.99882 32091 ft 455 kts 35°
2026-05-06 18:55 52.60557 -108.92807 32091 ft 455 kts 35°
2026-05-06 18:56 52.65171 -108.85693 32078 ft 454 kts 35°
2026-05-06 18:56 52.69788 -108.78552 32091 ft 454 kts 35°
2026-05-06 18:57 52.74394 -108.71404 32083 ft 454 kts 35°
2026-05-06 18:57 52.78973 -108.64280 32084 ft 454 kts 35°
2026-05-06 18:58 52.83568 -108.57106 32070 ft 454 kts 35°
2026-05-06 18:58 52.88167 -108.49907 32068 ft 455 kts 36°
2026-05-06 18:59 52.92761 -108.42690 32070 ft 455 kts 36°
2026-05-06 18:59 52.97347 -108.35468 32075 ft 455 kts 36°
2026-05-06 19:00 53.01900 -108.28272 32082 ft 455 kts 36°
2026-05-06 19:00 53.05658 -108.22317 32092 ft 455 kts 36°
2026-05-06 19:01 53.10239 -108.15034 32097 ft 455 kts 36°
2026-05-06 19:01 53.14803 -108.07757 32102 ft 455 kts 36°
2026-05-06 19:02 53.19348 -108.00492 32102 ft 455 kts 36°
2026-05-06 19:02 53.23911 -107.93174 32100 ft 455 kts 36°
2026-05-06 19:03 53.28473 -107.85834 32100 ft 455 kts 36°
2026-05-06 19:03 53.33021 -107.78490 32099 ft 454 kts 36°
2026-05-06 19:04 53.37570 -107.71126 32097 ft 454 kts 37°
2026-05-06 19:04 53.42101 -107.63766 32108 ft 454 kts 37°
2026-05-06 19:05 53.46632 -107.56384 32116 ft 453 kts 37°
2026-05-06 19:05 53.51123 -107.49044 32110 ft 453 kts 37°
2026-05-06 19:06 53.55634 -107.41649 32106 ft 452 kts 37°
2026-05-06 19:06 53.60247 -107.34513 32112 ft 446 kts 31°
2026-05-06 19:07 53.65144 -107.28146 32113 ft 444 kts 30°
2026-05-06 19:07 53.70080 -107.21852 32115 ft 443 kts 30°
2026-05-06 19:08 53.74995 -107.15579 32116 ft 443 kts 30°
2026-05-06 19:08 53.79879 -107.09315 32120 ft 443 kts 30°
2026-05-06 19:09 53.84781 -107.03000 32127 ft 442 kts 30°
2026-05-06 19:09 53.89666 -106.96685 32128 ft 441 kts 30°
2026-05-06 19:10 53.94539 -106.90368 32109 ft 440 kts 30°
2026-05-06 19:10 53.99401 -106.84046 32110 ft 440 kts 30°
2026-05-06 19:11 54.04264 -106.77706 32140 ft 439 kts 30°
2026-05-06 19:11 54.09106 -106.71374 32124 ft 439 kts 30°
2026-05-06 19:12 54.13935 -106.65042 32127 ft 438 kts 30°
2026-05-06 19:12 54.18763 -106.58689 32123 ft 437 kts 30°
2026-05-06 19:13 54.23581 -106.52327 32127 ft 437 kts 30°
2026-05-06 19:13 54.28388 -106.45959 32126 ft 436 kts 30°
2026-05-06 19:14 54.33150 -106.39634 32128 ft 436 kts 30°
2026-05-06 19:14 54.37935 -106.33261 32125 ft 435 kts 30°
2026-05-06 19:15 54.42715 -106.26875 32128 ft 435 kts 30°
2026-05-06 19:15 54.47486 -106.20481 32124 ft 434 kts 30°
2026-05-06 19:16 54.52242 -106.14088 32130 ft 434 kts 30°
2026-05-06 19:16 54.56969 -106.07717 32126 ft 434 kts 30°
2026-05-06 19:17 54.61719 -106.01296 32128 ft 433 kts 30°
2026-05-06 19:17 54.66460 -105.94863 32128 ft 433 kts 30°
2026-05-06 19:18 54.71194 -105.88422 32130 ft 433 kts 30°
2026-05-06 19:18 54.75929 -105.81957 32133 ft 432 kts 30°
2026-05-06 19:19 54.80613 -105.75544 32135 ft 432 kts 31°
2026-05-06 19:19 54.85333 -105.69066 32137 ft 432 kts 31°
2026-05-06 19:20 54.90047 -105.62572 32128 ft 431 kts 31°
2026-05-06 19:20 54.94742 -105.56086 32115 ft 431 kts 31°
2026-05-06 19:21 54.99436 -105.49580 32097 ft 431 kts 31°
2026-05-06 19:21 55.03329 -105.44169 32099 ft 431 kts 31°
2026-05-06 19:22 55.08020 -105.37632 32084 ft 431 kts 31°
2026-05-06 19:22 55.12700 -105.31090 32085 ft 430 kts 31°
2026-05-06 19:23 55.17067 -105.23769 32088 ft 442 kts 42°
2026-05-06 19:23 55.20879 -105.15393 32086 ft 444 kts 43°
2026-05-06 19:24 55.24648 -105.06786 32104 ft 445 kts 44°
2026-05-06 19:24 55.27533 -105.00159 32111 ft 444 kts 44°
2026-05-06 19:25 55.31286 -104.91552 32130 ft 444 kts 44°
2026-05-06 19:25 55.35037 -104.82945 32141 ft 443 kts 44°
2026-05-06 19:26 55.38784 -104.74320 32152 ft 443 kts 44°
2026-05-06 19:26 55.42495 -104.65741 32139 ft 444 kts 44°
2026-05-06 19:27 55.46233 -104.57074 32133 ft 443 kts 44°
2026-05-06 19:27 55.49962 -104.48395 32130 ft 444 kts 44°
2026-05-06 19:28 55.53685 -104.39699 32128 ft 444 kts 44°
2026-05-06 19:28 55.57397 -104.30998 32126 ft 444 kts 45°
2026-05-06 19:29 55.61110 -104.22266 32119 ft 444 kts 45°
2026-05-06 19:29 55.64825 -104.13497 32122 ft 445 kts 45°
2026-05-06 19:30 55.68534 -104.04712 32120 ft 446 kts 45°
2026-05-06 19:30 55.72247 -103.95885 32124 ft 446 kts 45°
2026-05-06 19:31 55.75934 -103.87089 32124 ft 447 kts 45°
2026-05-06 19:31 55.81494 -103.73758 32123 ft 448 kts 46°
2026-05-06 19:32 55.85198 -103.64838 32123 ft 449 kts 46°
2026-05-06 19:32 55.88909 -103.55868 32124 ft 449 kts 46°
2026-05-06 19:33 55.92612 -103.46886 32123 ft 450 kts 46°
2026-05-06 19:33 55.96298 -103.37914 32124 ft 451 kts 47°
2026-05-06 19:34 56.00001 -103.28868 32122 ft 451 kts 47°
2026-05-06 19:34 56.03703 -103.19788 32128 ft 452 kts 47°
2026-05-06 19:35 56.07401 -103.10685 32137 ft 452 kts 47°
2026-05-06 19:35 56.11105 -103.01531 32132 ft 453 kts 47°
2026-05-06 19:36 56.14801 -102.92371 32136 ft 454 kts 47°
2026-05-06 19:36 56.18480 -102.83211 32128 ft 455 kts 48°
2026-05-06 19:37 56.22173 -102.73981 32131 ft 455 kts 48°
2026-05-06 19:37 56.25864 -102.64720 32133 ft 456 kts 48°
2026-05-06 19:38 56.29563 -102.55406 32126 ft 457 kts 49°
2026-05-06 19:38 56.33250 -102.46094 32129 ft 457 kts 49°
2026-05-06 19:39 56.36926 -102.36787 32132 ft 458 kts 49°
2026-05-06 19:39 56.40610 -102.27392 32135 ft 459 kts 49°
2026-05-06 19:40 56.44295 -102.17950 32131 ft 460 kts 49°
2026-05-06 19:40 56.47981 -102.08481 32124 ft 460 kts 49°
2026-05-06 19:41 56.51664 -101.98986 32121 ft 461 kts 50°
2026-05-06 19:41 56.55343 -101.89464 32128 ft 462 kts 50°
2026-05-06 19:42 56.59024 -101.79898 32127 ft 462 kts 50°
2026-05-06 19:42 56.62699 -101.70313 32123 ft 463 kts 50°
2026-05-06 19:43 56.66382 -101.60669 32120 ft 464 kts 50°
2026-05-06 19:43 56.70051 -101.51022 32102 ft 464 kts 50°
2026-05-06 19:44 56.73723 -101.41330 32090 ft 465 kts 51°
2026-05-06 19:44 56.77363 -101.31681 32073 ft 465 kts 51°
2026-05-06 19:45 56.81029 -101.21925 32055 ft 466 kts 51°
2026-05-06 19:45 56.84715 -101.12154 32054 ft 465 kts 49°
2026-05-06 19:46 56.89162 -101.03766 32058 ft 457 kts 36°
2026-05-06 19:46 56.94152 -100.96541 32058 ft 457 kts 34°
2026-05-06 19:47 56.99172 -100.89493 32070 ft 457 kts 34°
2026-05-06 19:47 57.04213 -100.82393 32085 ft 458 kts 34°
2026-05-06 19:48 57.09263 -100.75224 32098 ft 458 kts 34°
2026-05-06 19:48 57.14291 -100.68043 32113 ft 458 kts 35°
2026-05-06 19:49 57.19335 -100.60812 32113 ft 458 kts 35°
2026-05-06 19:49 57.24326 -100.53634 32110 ft 458 kts 35°
2026-05-06 19:50 57.29348 -100.46387 32115 ft 458 kts 35°
2026-05-06 19:50 57.34383 -100.39092 32115 ft 458 kts 35°
2026-05-06 19:51 57.39402 -100.31799 32116 ft 458 kts 36°
2026-05-06 19:51 57.44423 -100.24474 32111 ft 459 kts 36°
2026-05-06 19:52 57.49440 -100.17131 32115 ft 459 kts 36°
2026-05-06 19:52 57.54405 -100.09836 32116 ft 459 kts 36°
2026-05-06 19:53 57.59424 -100.02434 32114 ft 459 kts 36°
2026-05-06 19:53 57.64422 -99.95038 32115 ft 459 kts 36°
2026-05-06 19:54 57.69435 -99.87593 32120 ft 459 kts 36°
2026-05-06 19:54 57.74439 -99.80134 32120 ft 459 kts 37°
2026-05-06 19:55 57.79391 -99.72725 32115 ft 459 kts 37°
2026-05-06 19:55 57.84391 -99.65216 32112 ft 459 kts 37°
2026-05-06 19:56 57.89381 -99.57696 32115 ft 459 kts 37°
2026-05-06 19:56 57.94365 -99.50159 32106 ft 459 kts 37°
2026-05-06 19:57 57.99317 -99.42642 32106 ft 459 kts 38°
2026-05-06 19:57 58.04276 -99.35085 32110 ft 459 kts 38°
2026-05-06 19:58 58.09248 -99.27482 32106 ft 459 kts 38°
2026-05-06 19:58 58.14200 -99.19879 32103 ft 459 kts 38°
2026-05-06 19:59 58.19163 -99.12232 32103 ft 459 kts 38°
2026-05-06 19:59 58.24111 -99.04581 32100 ft 459 kts 39°
2026-05-06 20:00 58.29059 -98.96903 32103 ft 459 kts 39°
2026-05-06 20:00 58.33998 -98.89208 32100 ft 458 kts 39°
2026-05-06 20:01 58.38889 -98.81559 32100 ft 458 kts 39°
2026-05-06 20:01 58.43822 -98.73817 32089 ft 458 kts 39°
2026-05-06 20:02 58.48741 -98.66067 32071 ft 458 kts 39°
2026-05-06 20:02 58.53654 -98.58297 32060 ft 458 kts 40°
2026-05-06 20:03 58.58568 -98.50497 32042 ft 458 kts 40°
2026-05-06 20:03 58.63477 -98.42675 32037 ft 458 kts 40°
2026-05-06 20:04 58.68350 -98.34881 32039 ft 458 kts 40°
2026-05-06 20:04 58.73241 -98.27029 32044 ft 458 kts 40°
2026-05-06 20:05 58.78134 -98.19144 32063 ft 458 kts 40°
2026-05-06 20:05 58.83018 -98.11242 32072 ft 458 kts 41°
2026-05-06 20:06 58.87866 -98.03370 32082 ft 458 kts 41°
2026-05-06 20:06 58.92743 -97.95420 32090 ft 459 kts 41°
2026-05-06 20:07 58.97593 -97.87484 32093 ft 459 kts 41°
2026-05-06 20:07 59.02454 -97.79499 32090 ft 459 kts 41°
2026-05-06 20:08 59.06543 -97.72758 32090 ft 459 kts 41°
2026-05-06 20:08 59.11370 -97.64773 32086 ft 459 kts 41°
2026-05-06 20:09 59.16247 -97.56674 32086 ft 459 kts 41°
2026-05-06 20:09 59.21102 -97.48578 32405 ft 460 kts 41°
2026-05-06 20:10 59.23533 -97.44512 32640 ft 461 kts 41°
2026-05-06 20:10 59.25967 -97.40434 32832 ft 462 kts 41°
2026-05-06 20:10 59.28404 -97.36344 33034 ft 462 kts 41°
2026-05-06 20:10 59.30847 -97.32236 33227 ft 463 kts 40°
2026-05-06 20:11 59.33235 -97.28211 33429 ft 463 kts 40°
2026-05-06 20:11 59.35742 -97.23979 33629 ft 464 kts 40°
2026-05-06 20:11 59.38183 -97.19849 33822 ft 464 kts 40°
2026-05-06 20:11 59.40518 -97.15892 34016 ft 465 kts 40°
2026-05-06 20:12 59.43007 -97.11663 34162 ft 465 kts 40°
2026-05-06 20:12 59.45454 -97.07500 34300 ft 466 kts 40°
2026-05-06 20:12 59.47911 -97.03310 34454 ft 466 kts 40°
2026-05-06 20:12 59.50363 -96.99119 34607 ft 466 kts 40°
2026-05-06 20:13 59.52814 -96.94923 34714 ft 467 kts 40°
2026-05-06 20:13 59.55037 -96.91110 34824 ft 467 kts 40°
2026-05-06 20:13 59.57170 -96.87444 34942 ft 468 kts 40°
2026-05-06 20:13 59.59600 -96.83262 35022 ft 469 kts 40°
2026-05-06 20:14 59.64584 -96.74656 35046 ft 475 kts 40°
2026-05-06 20:14 59.69567 -96.66018 35044 ft 481 kts 40°
2026-05-06 20:15 59.74614 -96.57231 35037 ft 486 kts 40°
2026-05-06 20:15 59.79704 -96.48330 35033 ft 488 kts 40°
2026-05-06 20:16 59.84782 -96.39414 35031 ft 487 kts 40°
2026-05-06 20:16 59.89854 -96.30470 35025 ft 487 kts 40°
2026-05-06 20:17 59.94928 -96.21484 35015 ft 487 kts 40°
2026-05-06 20:17 59.99995 -96.12473 35012 ft 487 kts 40°
2026-05-06 20:18 60.05051 -96.03443 35004 ft 488 kts 40°
2026-05-06 20:18 60.10072 -95.94436 35006 ft 488 kts 41°
2026-05-06 20:19 60.15127 -95.85331 35006 ft 488 kts 41°
2026-05-06 20:19 60.20167 -95.76213 35000 ft 488 kts 41°
2026-05-06 20:20 60.25211 -95.67049 34997 ft 488 kts 41°
2026-05-06 20:20 60.30241 -95.57871 34993 ft 488 kts 41°
2026-05-06 20:21 60.35270 -95.48652 34989 ft 488 kts 41°
2026-05-06 20:21 60.40302 -95.39389 34979 ft 488 kts 41°
2026-05-06 20:22 60.45318 -95.30117 34980 ft 488 kts 41°
2026-05-06 20:22 60.50322 -95.20824 34972 ft 488 kts 41°
2026-05-06 20:23 60.55288 -95.11562 34972 ft 488 kts 41°
2026-05-06 20:23 60.60293 -95.02183 34968 ft 488 kts 41°
2026-05-06 20:24 60.65279 -94.92805 34966 ft 488 kts 41°
2026-05-06 20:24 60.70270 -94.83372 34966 ft 488 kts 41°
2026-05-06 20:25 60.75229 -94.73959 34962 ft 487 kts 42°
2026-05-06 20:25 60.80145 -94.64582 34959 ft 480 kts 42°
2026-05-06 20:26 60.85014 -94.55254 34956 ft 474 kts 42°
2026-05-06 20:26 60.89831 -94.45993 34955 ft 474 kts 42°
2026-05-06 20:27 60.94620 -94.36744 34951 ft 475 kts 42°
2026-05-06 20:27 60.99434 -94.27405 34944 ft 475 kts 42°
2026-05-06 20:28 61.04238 -94.18043 34936 ft 475 kts 42°
2026-05-06 20:28 61.08997 -94.08622 34930 ft 475 kts 46°
2026-05-06 20:29 61.13113 -93.97959 34934 ft 475 kts 52°
2026-05-06 20:29 61.17042 -93.86888 34924 ft 476 kts 52°
2026-05-06 20:30 61.22926 -93.70063 34907 ft 484 kts 53°
2026-05-06 20:31 61.26896 -93.58676 34901 ft 488 kts 53°
2026-05-06 20:31 61.30869 -93.47237 34892 ft 488 kts 53°
2026-05-06 20:32 61.34826 -93.35789 34881 ft 487 kts 53°
2026-05-06 20:32 61.38775 -93.24309 34873 ft 487 kts 53°
2026-05-06 20:33 61.42714 -93.12801 34866 ft 487 kts 53°
2026-05-06 20:33 61.46621 -93.01326 34857 ft 487 kts 53°
2026-05-06 20:34 61.50539 -92.89760 34847 ft 487 kts 53°
2026-05-06 20:34 61.54457 -92.78141 34844 ft 487 kts 53°
2026-05-06 20:35 61.58355 -92.66518 34834 ft 487 kts 54°
2026-05-06 20:35 61.62249 -92.54849 34828 ft 487 kts 54°
2026-05-06 20:36 61.66131 -92.43159 34824 ft 487 kts 54°
2026-05-06 20:36 61.70004 -92.31435 34819 ft 487 kts 54°
2026-05-06 20:37 61.73867 -92.19680 34812 ft 488 kts 54°
2026-05-06 20:37 61.77696 -92.07973 34811 ft 488 kts 54°
2026-05-06 20:38 61.81549 -91.96130 34803 ft 488 kts 54°
2026-05-06 20:38 61.85387 -91.84271 34796 ft 489 kts 54°
2026-05-06 20:39 61.89233 -91.72326 34791 ft 490 kts 54°
2026-05-06 20:39 61.93061 -91.60376 34787 ft 490 kts 55°
2026-05-06 20:40 61.96885 -91.48375 34786 ft 490 kts 55°
2026-05-06 20:40 62.00702 -91.36331 34779 ft 491 kts 55°
2026-05-06 20:41 62.04509 -91.24259 34776 ft 491 kts 55°
2026-05-06 20:41 62.08283 -91.12226 34773 ft 491 kts 55°
2026-05-06 20:42 62.12071 -91.00085 34773 ft 491 kts 56°
2026-05-06 20:42 62.15849 -90.87912 34764 ft 491 kts 56°
2026-05-06 20:43 62.19617 -90.75710 34759 ft 491 kts 56°
2026-05-06 20:43 62.23361 -90.63514 34752 ft 491 kts 56°
2026-05-06 20:44 62.27118 -90.51213 34750 ft 491 kts 56°
2026-05-06 20:44 62.30854 -90.38915 34744 ft 491 kts 56°
2026-05-06 20:45 62.34577 -90.26591 34739 ft 491 kts 56°
2026-05-06 20:45 62.38285 -90.14250 34732 ft 491 kts 57°
2026-05-06 20:46 62.41990 -90.01854 34728 ft 491 kts 57°
2026-05-06 20:46 62.45685 -89.89425 34725 ft 491 kts 57°
2026-05-06 20:47 62.49344 -89.77051 34720 ft 491 kts 57°
2026-05-06 20:47 62.53035 -89.64497 34714 ft 491 kts 57°
2026-05-06 20:48 62.56666 -89.52077 34710 ft 491 kts 57°
2026-05-06 20:48 62.60312 -89.39539 34708 ft 491 kts 57°
2026-05-06 20:49 62.63947 -89.26971 34701 ft 491 kts 57°
2026-05-06 20:49 62.67576 -89.14353 34698 ft 491 kts 58°
2026-05-06 20:50 62.71183 -89.01741 34695 ft 491 kts 58°
2026-05-06 20:50 62.74785 -88.89073 34689 ft 492 kts 58°
2026-05-06 20:51 62.78379 -88.76365 34678 ft 492 kts 58°
2026-05-06 20:51 62.81961 -88.63629 34678 ft 492 kts 58°
2026-05-06 20:52 62.84918 -88.53058 34674 ft 492 kts 58°
2026-05-06 20:52 62.88497 -88.40199 34671 ft 492 kts 58°
2026-05-06 20:53 62.92049 -88.27365 34670 ft 492 kts 59°
2026-05-06 20:53 62.95592 -88.14488 34659 ft 492 kts 59°
2026-05-06 20:54 62.99101 -88.01664 34660 ft 492 kts 59°
2026-05-06 20:54 63.02622 -87.88719 34655 ft 493 kts 59°
2026-05-06 20:55 63.06133 -87.75735 34646 ft 493 kts 59°
2026-05-06 20:55 63.09625 -87.62750 34648 ft 493 kts 59°
2026-05-06 20:56 63.13115 -87.49694 34638 ft 493 kts 60°
2026-05-06 20:56 63.16589 -87.36622 34641 ft 493 kts 60°
2026-05-06 20:57 63.20047 -87.23535 34638 ft 493 kts 60°
2026-05-06 20:57 63.23496 -87.10404 34633 ft 493 kts 60°
2026-05-06 20:58 63.26935 -86.97233 34631 ft 492 kts 60°
2026-05-06 20:58 63.30358 -86.84048 34628 ft 492 kts 60°
2026-05-06 20:59 63.33762 -86.70853 34623 ft 492 kts 60°
2026-05-06 20:59 63.37161 -86.57604 34623 ft 492 kts 60°
2026-05-06 21:00 63.40527 -86.44403 34625 ft 492 kts 61°
2026-05-06 21:00 63.43897 -86.31106 34624 ft 492 kts 61°
2026-05-06 21:01 63.47257 -86.17769 34616 ft 492 kts 61°
2026-05-06 21:01 63.50598 -86.04426 34616 ft 492 kts 61°
2026-05-06 21:02 63.53932 -85.91033 34611 ft 491 kts 61°
2026-05-06 21:02 63.57250 -85.77620 34610 ft 491 kts 62°
2026-05-06 21:03 63.60548 -85.64205 34609 ft 491 kts 62°
2026-05-06 21:03 63.63834 -85.50760 34606 ft 491 kts 62°
2026-05-06 21:04 63.67111 -85.37266 34602 ft 491 kts 62°
2026-05-06 21:04 63.70372 -85.23759 34605 ft 490 kts 62°
2026-05-06 21:05 63.73615 -85.10241 34605 ft 490 kts 62°
2026-05-06 21:05 63.76846 -84.96688 34602 ft 490 kts 62°
2026-05-06 21:06 63.80062 -84.83111 34602 ft 490 kts 62°
2026-05-06 21:06 63.83254 -84.69556 34600 ft 490 kts 63°
2026-05-06 21:07 63.86446 -84.55914 34600 ft 490 kts 63°
2026-05-06 21:07 63.89632 -84.42210 34597 ft 490 kts 63°
2026-05-06 21:08 63.92803 -84.28486 34596 ft 491 kts 63°
2026-05-06 21:08 63.95964 -84.14716 34593 ft 491 kts 63°
2026-05-06 21:09 63.99111 -84.00922 34593 ft 491 kts 63°
2026-05-06 21:09 64.02241 -83.87109 34594 ft 490 kts 63°
2026-05-06 21:10 64.05354 -83.73287 34597 ft 490 kts 63°
2026-05-06 21:10 64.08456 -83.59423 34593 ft 490 kts 63°
2026-05-06 21:11 64.11536 -83.45568 34594 ft 490 kts 64°
2026-05-06 21:11 64.14620 -83.31607 34593 ft 489 kts 64°
2026-05-06 21:12 64.17673 -83.17676 34595 ft 489 kts 64°
2026-05-06 21:12 64.20710 -83.03654 34594 ft 489 kts 64°
2026-05-06 21:13 64.23726 -82.89642 34595 ft 489 kts 64°
2026-05-06 21:13 64.26712 -82.75698 34593 ft 489 kts 64°
2026-05-06 21:14 64.29709 -82.61612 34600 ft 489 kts 65°
2026-05-06 21:14 64.32687 -82.47514 34601 ft 490 kts 65°
2026-05-06 21:15 64.35662 -82.33338 34606 ft 490 kts 65°
2026-05-06 21:15 64.38619 -82.19154 34609 ft 490 kts 65°
2026-05-06 21:16 64.41566 -82.04918 34615 ft 491 kts 65°
2026-05-06 21:16 64.44502 -81.90643 34615 ft 491 kts 65°
2026-05-06 21:17 64.47425 -81.76328 34615 ft 491 kts 66°
2026-05-06 21:17 64.50320 -81.62059 34612 ft 491 kts 66°
2026-05-06 21:18 64.53206 -81.47730 34608 ft 490 kts 66°
2026-05-06 21:18 64.56081 -81.33358 34607 ft 490 kts 66°
2026-05-06 21:19 64.58942 -81.18955 34603 ft 489 kts 66°
2026-05-06 21:19 64.61780 -81.04565 34604 ft 489 kts 66°
2026-05-06 21:20 64.64606 -80.90136 34604 ft 488 kts 67°
2026-05-06 21:20 64.67418 -80.75677 34604 ft 488 kts 67°
2026-05-06 21:21 64.70211 -80.61214 34606 ft 487 kts 67°
2026-05-06 21:21 64.72973 -80.46809 34611 ft 487 kts 67°
2026-05-06 21:22 64.75738 -80.32282 34613 ft 487 kts 68°
2026-05-06 21:22 64.78478 -80.17787 34611 ft 486 kts 68°
2026-05-06 21:23 64.81184 -80.03368 34611 ft 486 kts 68°
2026-05-06 21:23 64.83889 -79.88849 34616 ft 485 kts 68°
2026-05-06 21:24 64.86577 -79.74314 34615 ft 485 kts 68°
2026-05-06 21:24 64.89256 -79.59723 34620 ft 484 kts 69°
2026-05-06 21:25 64.91912 -79.45155 34619 ft 483 kts 69°
2026-05-06 21:25 64.94545 -79.30603 34623 ft 483 kts 69°
2026-05-06 21:26 64.97169 -79.15993 34628 ft 482 kts 69°
2026-05-06 21:26 64.99767 -79.01421 34631 ft 482 kts 69°
2026-05-06 21:27 65.02605 -78.87053 34633 ft 483 kts 64°
2026-05-06 21:27 65.05817 -78.73088 34630 ft 483 kts 64°
2026-05-06 21:28 65.08985 -78.59114 34634 ft 482 kts 65°
2026-05-06 21:28 65.12082 -78.44974 34642 ft 481 kts 65°
2026-05-06 21:29 65.15132 -78.30800 34645 ft 480 kts 66°
2026-05-06 21:29 65.18125 -78.16785 34644 ft 480 kts 66°